Home   Weather   Detmold   Past weeks
Flag for Germany

Past Weather in Detmold, North Rhine-Westphalia, Germany — Yesterday and Last 2 Weeks

Now
55 °F

Partly sunny.


Feels Like: 54 °F
Forecast: 67 / 55 °F
Wind: 7 mph from West

Location: Paderborn / Lippstadt

Current Time: Jul 16, 2019 at 1:07:16 pm

Latest Report: Jul 16, 2019 at 12:20 pm


Visibility: N/A

Pressure: 30.09 "Hg

Humidity: 88%

Dew Point: 52 °F

Location of DetmoldLocation

Past Weather in Detmold — Graph

°F

Detmold Temperature Yesterday

Maximum temperature yesterday: 59 °F (at 7:50 pm)
Minimum temperature yesterday: 52 °F (at 9:50 pm)
Average temperature yesterday: 56 °F

High & Low Weather Summary for the Past Weeks

 TemperatureHumidityPressure
High79 °F (Jul 6, 3:50 pm)100% (Jul 6, 11:50 pm)30.27 "Hg (Jul 6, 11:50 pm)
Low45 °F (Jul 4, 3:50 am)31% (Jul 4, 5:20 pm)29.59 "Hg (Jul 4, 9:20 pm)
Average59 °F71%30.05 "Hg
* Reported Jul 1 11:20 am — Jul 16 11:50 am, Detmold. Weather by CustomWeather, © 2019

Note: Actual official high and low records may vary slightly from our data, if they occured in-between our weather recording intervals... More about our weather records

Advertising

Detmold Weather History for the Previous 24 Hours

Scroll right to see more
 ConditionsComfort  
Time TempWeatherWind HumidityBarometerVisibility
11:50 am
Tue, Jul 16
55 °FPartly sunny.6 mph82%30.07 "HgN/A
11:20 am55 °FPartly sunny.7 mph82%30.07 "Hg6 mi
10:50 am55 °FDrizzle. Partly sunny.6 mph82%30.07 "Hg6 mi
10:20 am54 °FPartly sunny.7 mph88%30.09 "Hg6 mi
9:50 am54 °FPartly sunny.7 mph88%30.07 "Hg6 mi
9:20 am54 °FPartly sunny.6 mph88%30.07 "HgN/A
8:50 am54 °FPartly sunny.6 mph88%30.07 "HgN/A
8:20 am54 °FPartly sunny.6 mph88%30.07 "HgN/A
7:50 am54 °FOvercast.6 mph88%30.07 "HgN/A
7:20 am54 °FOvercast.5 mph88%30.07 "HgN/A
6:50 am54 °FOvercast.6 mph88%30.07 "HgN/A
6:20 am54 °FMostly cloudy.6 mph88%30.07 "HgN/A
5:50 am54 °FOvercast.5 mph88%30.07 "HgN/A
5:20 am54 °FOvercast.3 mph88%30.07 "HgN/A
4:50 am54 °FOvercast.3 mph88%30.07 "HgN/A
4:20 am54 °FOvercast.3 mph88%30.07 "HgN/A
3:50 am52 °FOvercast.5 mph94%30.07 "HgN/A
3:20 am52 °FPassing clouds.5 mph94%30.07 "HgN/A
2:50 am52 °FPassing clouds.5 mph88%30.09 "HgN/A
2:20 am50 °FPassing clouds.5 mph94%30.09 "HgN/A
1:50 am54 °FPassing clouds.5 mph88%30.07 "HgN/A
1:20 am54 °FPassing clouds.5 mph88%30.07 "HgN/A
12:50 am55 °FOvercast.6 mph82%30.07 "HgN/A
12:20 am54 °FPassing clouds.8 mph88%30.07 "HgN/A
11:50 pm
Mon, Jul 15
52 °FPassing clouds.7 mph88%30.07 "HgN/A
11:20 pm52 °FPassing clouds.7 mph88%30.07 "HgN/A
10:50 pm52 °FClear.7 mph88%30.07 "Hg10 mi
10:20 pm52 °FClear.7 mph88%30.07 "Hg10 mi
9:50 pm52 °FClear.7 mph88%30.07 "Hg10 mi
9:20 pm57 °FSunny.5 mph72%30.07 "Hg10 mi
8:50 pm59 °FPassing clouds.5 mph72%30.07 "HgN/A
8:20 pm59 °FPassing clouds.6 mph72%30.07 "HgN/A
7:50 pm59 °FPartly sunny.6 mph68%30.09 "HgN/A
7:20 pm57 °FPartly sunny.6 mph72%30.09 "HgN/A
6:50 pm57 °FPartly sunny.6 mph77%30.09 "HgN/A
6:20 pm57 °FPartly sunny.7 mph77%30.09 "HgN/A
5:50 pm57 °FPartly sunny.6 mph72%30.09 "HgN/A
5:20 pm57 °FPartly sunny.6 mph77%30.09 "HgN/A
4:50 pm57 °FPartly sunny.6 mph77%30.09 "HgN/A
4:20 pm57 °FOvercast.7 mph77%30.09 "HgN/A
3:50 pm55 °FOvercast.7 mph82%30.09 "HgN/A
3:20 pm57 °FOvercast.6 mph82%30.09 "HgN/A
2:50 pm55 °FMostly cloudy.8 mph82%30.09 "HgN/A
2:20 pm57 °FOvercast.6 mph77%30.09 "HgN/A
1:50 pm57 °FOvercast.5 mph77%30.09 "HgN/A
1:20 pm57 °FOvercast.6 mph77%30.09 "HgN/A
Weather by CustomWeather, © 2019

See weather overview

LIVE PARTIAL LUNAR ECLIPSE – Watch the eclipse as it happens